GSAT0226 (GALILEO 31)

Last updated on Sun Jun 29 2025 00:02:33 GMT+0000 (Coordinated Universal Time)

1 61183U 24167B 25178.79032083 .00000027 00000+0 00000+0 0 9991 2 61183 55.2972 231.0419 0002883 217.3740 141.1071 1.70474321 4802
UTC large
Height (km)
Speed (km/s)
/
Latitude / Longitude
Inclination (degrees)
Orbital Period (minutes)
Azimuth
Elevation
Range (km)
Doppler Factor

Next 0 passes for location: London (51.5072 / 0.1276)

Sorry there are no passes over London.